{"data":{"norad_id":40965,"epoch":"2026-09-20T04:04:55.596288Z","epoch_age_seconds":46604,"freshness":"FRESH","line1":"1 40965U 15058B   26263.17008792  .00001084  00000+0  10430-3 0  9999","line2":"2 40965  64.7672 326.9880 0138296  27.4892 333.3446 14.91877397379826","mean_motion":14.91877397,"eccentricity":0.0138296,"inclination_deg":64.7672,"raan_deg":326.988,"arg_perigee_deg":27.4892,"mean_anomaly_deg":333.3446,"bstar":0.0001043,"rev_number":37982,"period_min":96.522676923431,"perigee_km":495.68658001616,"apogee_km":688.47725915678,"semimajor_km":6970.2189195865,"source":"CELESTRAK","updated_at":"2026-09-20T09:00:48.028157Z"}}